User: anonymous   Login
Location: Unspecified
(0.0000°N, 0.0000°E)
Time: 16:46:46
(UTC+00:00)
Language:

GOSAT - Orbit

View from above orbital plane
View from above orbital plane
View from above satellite
View from above satellite

Ground track
Ground track

The orbit data is extracted from the following two-line orbital elements,

1 33492U 09002A   17352.12019992 -.00000033  00000-0  27878-5 0  9997
2 33492  98.1375 102.3878 0001715  76.5394 283.6009 14.67512707476806
Epoch (UTC): 18 December 2017 02:53:05
Eccentricity: 0.0001715
inclination: 98.1375°
perigee height: 668 km
apogee height: 670 km
right ascension of ascending node: 102.3878°
argument of perigee: 76.5394°
revolutions per day: 14.67512707
mean anomaly at epoch: 283.6009°
orbit number at epoch: 47680

The dashed part of the orbit path shows where the satellite is in the earth's shadow,  

DLR